Location: Maiden
(35.5760°N, 81.2120°W)
Time: 10:58:39
(UTC-04:00)

A-11 Canister half - Visible Passes

Search period start: 04 August 2020 00:00
Search period end: 14 August 2020 00:00
Orbit: 1527 x 1682 km, 47.3° (Epoch: 03 August)

Date Brightness Start Highest point End Pass type
(mag) Time Alt. Az. Time Alt. Az. Time Alt. Az.
04 Aug 9.2 21:11:21 10° WNW 21:21:17 78° SW 21:29:50 14° SE visible
04 Aug 10.4 23:18:22 10° W 23:25:09 22° SW 23:28:08 19° SSW visible
05 Aug 9.2 20:49:38 10° WNW 20:59:37 81° SW 21:09:14 10° SE visible
05 Aug 10.4 22:56:27 10° WNW 23:03:35 23° SW 23:07:47 17° SSW visible
06 Aug 10.4 22:34:35 10° WNW 22:42:01 25° SW 22:47:29 15° SSW visible
07 Aug 10.4 22:12:43 10° WNW 22:20:26 27° SW 22:27:15 12° S visible
08 Aug 10.4 21:50:53 10° WNW 21:58:51 29° SW 22:06:39 10° S visible
09 Aug 10.3 21:29:03 10° WNW 21:37:16 31° SW 21:45:16 10° S visible
10 Aug 10.3 21:07:15 10° WNW 21:15:41 33° SW 21:23:53 10° S visible
11 Aug 10.3 20:45:27 10° WNW 20:54:05 35° SW 21:02:29 10° S visible
